User: anonymous   Login
Location: Noordwijk
(52.2400°N, 4.4500°E)
Time: 08:59:19
(UTC+00:00)
Language:

VELOX 1 - Orbit

View from above orbital plane
View from above orbital plane
View from above satellite
View from above satellite

Ground track
Ground track

The orbit data is extracted from the following two-line orbital elements,

1 40057U 14034E   22330.76680506  .00002000  00000-0  27253-3 0  9990
2 40057  98.3697 149.9611 0010778 165.7246 194.4264 14.79866280453479
Epoch (UTC): 26 November 2022 18:24:11
Eccentricity: 0.0010778
inclination: 98.3697°
perigee height: 622 km
apogee height: 637 km
right ascension of ascending node: 149.9611°
argument of perigee: 165.7246°
revolutions per day: 14.79866280
mean anomaly at epoch: 194.4264°
orbit number at epoch: 45347

The dashed part of the orbit path shows where the satellite is in the earth's shadow,  

DLR